Weather History for KCQT - August, 2014

Change the Weather History Date:

Sunday, August 24, 2014

  Actual Average Record
Temperature  
Mean Temperature 75 °F 74 °F  
Max Temperature 83 °F 85 °F 96 °F (1931)
Min Temperature 67 °F 64 °F 53 °F (1900)
Degree Days  
Heating Degree Days 0 0  
Month to date heating degree days 0 0  
Since 1 June heating degree days 0 8  
Since 1 July heating degree days 0 0  
Cooling Degree Days 10 9  
Month to date cooling degree days 245 216  
Year to date cooling degree days 993 763  
Since 1 June cooling degree days 699 609  
Growing Degree Days 24 (Base 50)    
Moisture  
Dew Point 59 °F    
Average Humidity 62    
Maximum Humidity 81    
Minimum Humidity 42    
Precipitation  
Precipitation 0.00 in 0.00 in 0.05 in (1988)
Month to date precipitation 0.04 0.03  
Year to date precipitation 5.15 10.65  
Since 1 July precipitation 0.04 0.04  
Sea Level Pressure  
Sea Level Pressure 29.87 in    
Wind  
Wind Speed 2 mph (West)    
Max Wind Speed 10 mph    
Max Gust Speed 16 mph    
Visibility 10 miles    
Events      
T = Trace of Precipitation, MM = Missing Value Source: NWS Daily Summary

Daily Weather History Graph

Daily Weather History Graph

Search for Another Location

Airport or City:

Trip Planner

Search our weather history database for the weather conditions in past years. The results will help you decide how hot, cold, wet, or windy it might be!

Date:

Astronomy

Aug. 24, 2014 Rise Set
Actual Time 6:21 AM PDT 7:29 PM PDT
Civil Twilight 5:55 AM PDT 7:55 PM PDT
Nautical Twilight 5:24 AM PDT 8:25 PM PDT
Astronomical Twilight 4:52 AM PDT 8:57 PM PDT
Moon 5:35 AM PDT (8/24) 6:51 PM PDT (8/24)
Length of Visible Light 13h 59m
Length of Day
13h 07m
Waning Crescent, 1% of the Moon is Illuminated
Aug 24
Waning Crescent
Aug 25
New
Sep 2
First Quarter
Sep 8
Full
Sep 15
Last Quarter

Hourly Weather History & Observations

Time (PDT) Temp. Heat Index Dew Point Humidity Pressure Visibility Wind Dir Wind Speed Gust Speed Precip Events Conditions
12:47 AM 66.9 °F - 60.1 °F 79% 29.90 in 10.0 mi Calm Calm - N/A   Overcast
1:47 AM 66.9 °F - 60.1 °F 79% 29.89 in 10.0 mi Calm Calm - N/A   Overcast
2:47 AM 66.9 °F - 60.1 °F 79% 29.89 in 10.0 mi West 3.5 mph - N/A   Overcast
3:47 AM 68.0 °F - 59.0 °F 73% 29.88 in 10.0 mi Calm Calm - N/A   Overcast
4:47 AM 66.9 °F - 59.0 °F 76% 29.88 in 10.0 mi Calm Calm - N/A   Overcast
5:47 AM 66.9 °F - 57.9 °F 73% 29.88 in 10.0 mi Calm Calm - N/A   Overcast
6:47 AM 66.9 °F - 57.9 °F 73% 29.89 in 8.0 mi Calm Calm - N/A   Overcast
7:47 AM 69.1 °F - 57.9 °F 68% 29.91 in 8.0 mi Calm Calm - N/A   Overcast
8:33 AM 72.0 °F - 59.0 °F 64% 29.91 in 8.0 mi Calm Calm - N/A   Scattered Clouds
8:47 AM 72.0 °F - 59.0 °F 64% 29.91 in 8.0 mi Calm Calm - N/A   Partly Cloudy
9:47 AM 75.0 °F - 57.9 °F 55% 29.90 in 9.0 mi Calm Calm - N/A   Clear
11:47 AM 80.1 °F 80.2 °F 55.9 °F 43% 29.87 in 10.0 mi Calm Calm - N/A   Clear
12:47 PM 82.0 °F 82.1 °F 59.0 °F 45% 29.85 in 10.0 mi North - - N/A   Clear
1:47 PM 82.0 °F 82.1 °F 59.0 °F 45% 29.83 in 10.0 mi SSW 3.5 mph - N/A   Clear
2:47 PM 79.0 °F - 60.1 °F 52% 29.83 in 10.0 mi Variable 4.6 mph - N/A   Clear
3:47 PM 78.1 °F - 60.1 °F 54% 29.83 in 10.0 mi West 6.9 mph - N/A   Clear
4:47 PM 75.9 °F - 59.0 °F 56% 29.83 in 10.0 mi Variable 6.9 mph - N/A   Clear
5:47 PM 73.9 °F - 59.0 °F 59% 29.82 in 10.0 mi Variable 3.5 mph - N/A   Clear
6:47 PM 73.0 °F - 60.1 °F 64% 29.81 in 10.0 mi West 4.6 mph - N/A   Clear
7:47 PM 70.0 °F - 61.0 °F 73% 29.83 in 10.0 mi Variable 5.8 mph - N/A   Clear
8:47 PM 68.0 °F - 60.1 °F 76% 29.85 in 10.0 mi Calm Calm - N/A   Clear
9:47 PM 68.0 °F - 60.1 °F 76% 29.87 in 10.0 mi Calm Calm - N/A   Clear
10:47 PM 68.0 °F - 60.1 °F 76% 29.88 in 10.0 mi Calm Calm - N/A   Clear
11:47 PM 66.9 °F - 60.1 °F 79% 29.89 in 10.0 mi Calm Calm - N/A   Clear